When you browse on this site, cookies collect data to enhance your experience and personalize the content and advertising you see.
Visit our Privacy Policy to learn more. By continuing to use the site, you agree to this use of cookies and data.
  • In Czech Republic
  • List of Countries
  • For 7 days
  • Water Temperature
  • Weather Map
  • Weather Widgets
  • user-avatar
    Login

    Hourly Weather Osov

    Today, 29 May, Friday

    Time Temperature Precipitation Wind Pressure Humidity
    00:00 +11°C° 1.3 mm 4 mps 747 mmHg 92%
    01:00 +10°C° 1.3 mm 5 mps 746 mmHg 92%
    02:00 +10°C° 0 mm 6 mps 746 mmHg 93%
    03:00 +10°C° 0.2 mm 6 mps 745 mmHg 93%
    04:00 +10°C° 0.2 mm 5 mps 745 mmHg 93%
    05:00 +9°C° 0.2 mm 5 mps 744 mmHg 93%
    06:00 +10°C° 0 mm 5 mps 744 mmHg 93%
    07:00 +12°C° 0 mm 4 mps 744 mmHg 93%
    08:00 +12°C° 0 mm 4 mps 744 mmHg 95%
    09:00 +13°C° 0 mm 4 mps 744 mmHg 92%
    10:00 +14°C° 0 mm 3 mps 744 mmHg 90%
    11:00 +16°C° 0 mm 3 mps 744 mmHg 88%
    12:00 +17°C° 0.2 mm 4 mps 744 mmHg 84%
    13:00 +18°C° 0.2 mm 4 mps 744 mmHg 81%
    14:00 +19°C° 0.2 mm 5 mps 744 mmHg 78%
    15:00 +19°C° 0.4 mm 5 mps 743 mmHg 80%
    16:00 +19°C° 0.4 mm 5 mps 743 mmHg 81%
    17:00 +19°C° 0.4 mm 6 mps 743 mmHg 82%
    18:00 +17°C° 0.3 mm 6 mps 743 mmHg 86%
    19:00 +16°C° 0.3 mm 6 mps 742 mmHg 89%
    20:00 +15°C° 0.3 mm 5 mps 742 mmHg 92%
    21:00 +15°C° 0.2 mm 5 mps 742 mmHg 93%
    22:00 +15°C° 0.2 mm 5 mps 742 mmHg 94%
    23:00 +15°C° 0.2 mm 5 mps 741 mmHg 95%

    Tomorrow, 30 May, Saturday

    Time Temperature Precipitation Wind Pressure Humidity
    00:00 +15°C° 2.1 mm 5 mps 741 mmHg 96%
    01:00 +15°C° 2.1 mm 5 mps 741 mmHg 97%
    02:00 +15°C° 2.1 mm 5 mps 740 mmHg 97%
    03:00 +15°C° 2.6 mm 5 mps 740 mmHg 97%
    04:00 +15°C° 2.6 mm 5 mps 740 mmHg 97%
    05:00 +15°C° 2.6 mm 5 mps 739 mmHg 97%
    06:00 +15°C° 0.6 mm 5 mps 739 mmHg 97%
    07:00 +17°C° 0.6 mm 4 mps 739 mmHg 97%
    08:00 +17°C° 0.6 mm 4 mps 739 mmHg 96%
    09:00 +17°C° 0.9 mm 5 mps 739 mmHg 95%
    10:00 +17°C° 0.9 mm 5 mps 738 mmHg 93%
    11:00 +19°C° 0.9 mm 6 mps 738 mmHg 91%
    12:00 +19°C° 1.5 mm 6 mps 738 mmHg 93%
    13:00 +17°C° 1.5 mm 6 mps 737 mmHg 94%
    14:00 +17°C° 1.5 mm 6 mps 737 mmHg 95%
    15:00 +17°C° 2.5 mm 7 mps 737 mmHg 95%
    16:00 +17°C° 2.5 mm 7 mps 736 mmHg 95%
    17:00 +17°C° 2.5 mm 8 mps 736 mmHg 95%
    18:00 +16°C° 4.2 mm 7 mps 736 mmHg 95%
    19:00 +15°C° 4.2 mm 6 mps 736 mmHg 96%
    20:00 +15°C° 4.2 mm 5 mps 736 mmHg 96%
    21:00 +14°C° 0.2 mm 4 mps 736 mmHg 96%
    22:00 +14°C° 0.2 mm 3 mps 737 mmHg 97%
    23:00 +13°C° 0.2 mm 3 mps 737 mmHg 97%

    Day after tomorrow, 31 May, Sunday

    Time Temperature Precipitation Wind Pressure Humidity
    00:00 +13°C° 0 mm 3 mps 737 mmHg 97%
    01:00 +14°C° 0 mm 2 mps 737 mmHg 97%
    02:00 +13°C° 0 mm 2 mps 738 mmHg 97%
    03:00 +13°C° 0.3 mm 2 mps 738 mmHg 98%
    04:00 +13°C° 0.3 mm 2 mps 738 mmHg 98%
    05:00 +13°C° 0.3 mm 2 mps 738 mmHg 98%
    06:00 +14°C° 1.7 mm 2 mps 738 mmHg 98%
    07:00 +14°C° 1.7 mm 2 mps 739 mmHg 98%
    08:00 +13°C° 1.7 mm 3 mps 739 mmHg 98%
    09:00 +13°C° 2 mm 4 mps 739 mmHg 96%
    10:00 +12°C° 2 mm 5 mps 740 mmHg 95%
    11:00 +11°C° 2 mm 6 mps 740 mmHg 94%
    12:00 +11°C° 0.7 mm 7 mps 740 mmHg 93%
    13:00 +11°C° 0.7 mm 7 mps 741 mmHg 93%
    14:00 +10°C° 0.7 mm 8 mps 741 mmHg 92%
    15:00 +10°C° 0.3 mm 8 mps 741 mmHg 90%
    16:00 +10°C° 0.3 mm 8 mps 742 mmHg 88%
    17:00 +10°C° 0.3 mm 8 mps 742 mmHg 86%
    18:00 +10°C° 0.1 mm 7 mps 742 mmHg 85%
    19:00 +10°C° 0.1 mm 6 mps 743 mmHg 84%
    20:00 +10°C° 0.1 mm 5 mps 743 mmHg 84%
    21:00 +9°C° 0.1 mm 5 mps 744 mmHg 85%
    22:00 +9°C° 0.1 mm 5 mps 744 mmHg 87%
    23:00 +9°C° 0.1 mm 5 mps 744 mmHg 88%

    1 June, Monday

    Time Temperature Precipitation Wind Pressure Humidity
    00:00 +8°C° 0 mm 5 mps 744 mmHg 88%
    01:00 +8°C° 0 mm 5 mps 745 mmHg 87%
    02:00 +7°C° 0 mm 5 mps 745 mmHg 86%
    03:00 +6°C° 0 mm 5 mps 745 mmHg 84%
    04:00 +5°C° 0 mm 6 mps 745 mmHg 83%
    05:00 +4°C° 0 mm 6 mps 746 mmHg 81%
    06:00 +5°C° 0 mm 6 mps 746 mmHg 77%
    07:00 +7°C° 0 mm 6 mps 746 mmHg 74%
    08:00 +8°C° 0 mm 6 mps 747 mmHg 71%
    09:00 +9°C° 0 mm 6 mps 747 mmHg 67%
    10:00 +10°C° 0 mm 6 mps 747 mmHg 64%
    11:00 +11°C° 0 mm 6 mps 747 mmHg 60%
    12:00 +11°C° 0 mm 6 mps 747 mmHg 60%
    13:00 +11°C° 0 mm 6 mps 747 mmHg 60%
    14:00 +12°C° 0 mm 5 mps 747 mmHg 60%
    15:00 +12°C° 0.1 mm 5 mps 747 mmHg 61%
    16:00 +12°C° 0.1 mm 5 mps 746 mmHg 63%
    17:00 +12°C° 0.1 mm 5 mps 746 mmHg 64%
    18:00 +11°C° 0.1 mm 4 mps 746 mmHg 71%
    19:00 +9°C° 0.1 mm 3 mps 746 mmHg 78%
    20:00 +8°C° 0.1 mm 2 mps 746 mmHg 84%
    21:00 +7°C° 0 mm 2 mps 746 mmHg 86%
    22:00 +6°C° 0 mm 2 mps 746 mmHg 88%
    23:00 +5°C° 0 mm 2 mps 747 mmHg 90%

    2 June, Tuesday

    Time Temperature Precipitation Wind Pressure Humidity
    00:00 +5°C° 0 mm 2 mps 746 mmHg 91%
    01:00 +4°C° 0 mm 2 mps 746 mmHg 92%
    02:00 +3°C° 0 mm 3 mps 746 mmHg 93%
    03:00 +3°C° 0 mm 3 mps 746 mmHg 93%
    04:00 +3°C° 0 mm 3 mps 746 mmHg 92%
    05:00 +3°C° 0 mm 3 mps 746 mmHg 92%
    06:00 +5°C° 0 mm 3 mps 746 mmHg 86%
    07:00 +8°C° 0 mm 3 mps 746 mmHg 81%
    08:00 +10°C° 0 mm 4 mps 746 mmHg 76%
    09:00 +11°C° 0.1 mm 4 mps 746 mmHg 73%
    10:00 +11°C° 0.1 mm 4 mps 746 mmHg 70%
    11:00 +12°C° 0.1 mm 4 mps 746 mmHg 67%
    12:00 +13°C° 0.3 mm 4 mps 745 mmHg 68%
    13:00 +14°C° 0.3 mm 4 mps 745 mmHg 68%
    14:00 +14°C° 0.3 mm 4 mps 744 mmHg 68%
    15:00 +14°C° 0.5 mm 4 mps 744 mmHg 71%
    16:00 +13°C° 0.5 mm 4 mps 744 mmHg 75%
    17:00 +13°C° 0.5 mm 3 mps 744 mmHg 78%
    18:00 +12°C° 0.3 mm 3 mps 744 mmHg 82%
    19:00 +11°C° 0.3 mm 3 mps 744 mmHg 86%
    20:00 +9°C° 0.3 mm 2 mps 743 mmHg 90%
    21:00 +9°C° 0 mm 2 mps 743 mmHg 91%
    22:00 +8°C° 0 mm 2 mps 743 mmHg 92%
    23:00 +7°C° 0 mm 2 mps 743 mmHg 94%

    3 June, Wednesday

    Time Temperature Precipitation Wind Pressure Humidity
    00:00 +7°C° 0 mm 2 mps 743 mmHg 94%
    01:00 +6°C° 0 mm 2 mps 743 mmHg 94%
    02:00 +7°C° 0 mm 1 mps 743 mmHg 94%
    03:00 +7°C° 0 mm 1 mps 743 mmHg 94%
    04:00 +7°C° 0 mm 1 mps 743 mmHg 94%
    05:00 +7°C° 0 mm 1 mps 743 mmHg 94%
    06:00 +9°C° 0 mm 1 mps 743 mmHg 89%
    07:00 +10°C° 0 mm 1 mps 743 mmHg 84%
    08:00 +12°C° 0 mm 1 mps 743 mmHg 79%
    09:00 +13°C° 0.4 mm 1 mps 743 mmHg 74%
    10:00 +14°C° 0.4 mm 1 mps 742 mmHg 70%
    11:00 +15°C° 0.4 mm 0 mps 742 mmHg 66%
    12:00 +16°C° 0.3 mm 1 mps 742 mmHg 62%
    13:00 +18°C° 0.3 mm 1 mps 742 mmHg 58%
    14:00 +18°C° 0.3 mm 1 mps 741 mmHg 54%
    15:00 +18°C° 0.1 mm 1 mps 741 mmHg 57%
    16:00 +16°C° 0.1 mm 1 mps 741 mmHg 59%
    17:00 +16°C° 0.1 mm 2 mps 741 mmHg 62%
    18:00 +14°C° 0.1 mm 1 mps 741 mmHg 69%
    19:00 +12°C° 0.1 mm 1 mps 741 mmHg 76%
    20:00 +11°C° 0.1 mm 1 mps 741 mmHg 84%
    21:00 +10°C° 0 mm 1 mps 741 mmHg 86%
    22:00 +9°C° 0 mm 1 mps 741 mmHg 87%
    23:00 +8°C° 0 mm 1 mps 741 mmHg 89%
    Show more